{"data":{"norad_id":50472,"epoch":"2026-09-20T00:01:08.842656Z","epoch_age_seconds":68976,"freshness":"FRESH","line1":"1 50472U 21132D   26263.00079679 -.00000027  00000+0 -10150-3 0  9994","line2":"2 50472  87.9210 347.0269 0002124 111.2579 248.8779 13.17650541230602","mean_motion":13.17650541,"eccentricity":0.0002124,"inclination_deg":87.921,"raan_deg":347.0269,"arg_perigee_deg":111.2579,"mean_anomaly_deg":248.8779,"bstar":-0.0001015,"rev_number":23060,"period_min":109.28542547458,"perigee_km":1192.0990965725,"apogee_km":1195.3156160551,"semimajor_km":7571.8443563138,"source":"CELESTRAK","updated_at":"2026-09-20T09:00:44.677229Z"}}